This is the latest recevied weather packets stored in our database for station/object KC1OEK-13. If no packets are shown the sender has not sent any weather packets the latest 10 day(s).
| Time | Temp. | Humidity | Pressure | Rain* | Wind** | Luminosity | Snow |
|---|---|---|---|---|---|---|---|
| 1787663216 | 18.89° C | 83% | 1017.9 hPa | 0 mm | - | 362 W/m² | - |
| 1787662912 | 18.89° C | 83% | 1018 hPa | 0 mm | - | 349 W/m² | - |
| 1787662611 | 18.89° C | 84% | 1017.7 hPa | 0 mm | - | 338 W/m² | - |
| 1787662307 | 18.89° C | 84% | 1018 hPa | 0 mm | - | 327 W/m² | - |
| 1787662003 | 18.89° C | 84% | 1017.8 hPa | 0 mm | - | 317 W/m² | - |
| 1787661698 | 17.78° C | 88% | 1017.6 hPa | 0 mm | - | 309 W/m² | - |
| 1787661397 | 17.22° C | 91% | 1017.8 hPa | 0 mm | - | 293 W/m² | - |
| 1787661091 | 16.67° C | 92% | 1017.8 hPa | 0 mm | - | 282 W/m² | - |
| 1787660791 | 16.11° C | 95% | 1017.7 hPa | 0 mm | - | 274 W/m² | - |
| 1787660485 | 16.11° C | 99% | 1017.8 hPa | 0 mm | - | 265 W/m² | - |
| 1787660184 | 15.56° C | 99% | 1017.7 hPa | 0 mm | - | 221 W/m² | - |
| 1787659880 | 15.56° C | 99% | 1017.8 hPa | 0 mm | - | 135 W/m² | - |
| 1787659572 | 15° C | 99% | 1017.6 hPa | 0 mm | - | 94 W/m² | - |
| 1787659268 | 15° C | 99% | 1017.8 hPa | 0 mm | - | 78 W/m² | - |
| 1787658966 | 14.44° C | 99% | 1017.8 hPa | 0 mm | - | 65 W/m² | - |
| 1787658661 | 15° C | 99% | 1017.6 hPa | 0 mm | - | 62 W/m² | - |
| 1787658356 | 13.89° C | 99% | 1017.7 hPa | 0 mm | - | 56 W/m² | - |
| 1787658052 | 13.33° C | 99% | 1017.7 hPa | 0 mm | - | 51 W/m² | - |
| 1787657748 | 12.78° C | 99% | 1017.5 hPa | 0 mm | - | 34 W/m² | - |
| 1787657443 | 12.78° C | 99% | 1017.8 hPa | 0 mm | - | 33 W/m² | - |
| 1787657142 | 12.78° C | 99% | 1017.6 hPa | 0 mm | - | 34 W/m² | - |
| 1787656838 | 12.78° C | 99% | 1017.6 hPa | 0 mm | - | 30 W/m² | - |
| 1787656529 | 12.22° C | 99% | 1017.5 hPa | 0 mm | - | 29 W/m² | - |
| 1787656223 | 12.22° C | 99% | 1017.5 hPa | 0 mm | - | 28 W/m² | - |
| 1787655919 | 12.22° C | 99% | 1017.4 hPa | 0 mm | - | 29 W/m² | - |
* Rain latest hour (hover to see other rain measurements)
** Current wind speed in m/s (hover to see current wind gust speed)